Bloomington, IL

7:53 PM CDT on May 23, 2017 (GMT -0500)
Central Ill Regional

Weather History for KBMI - December, 2011

Change the Weather History Date:

Sunday, December 25, 2011

  Actual Average Record
Temperature  
Mean Temperature 36 °F -  
Max Temperature 43 °F 36 °F 51 °F (2016)
Min Temperature 28 °F 14 °F -4 °F (2000)
Degree Days  
Heating Degree Days 30    
Moisture  
Dew Point 27 °F    
Average Humidity 74    
Maximum Humidity 92    
Minimum Humidity 53    
Precipitation  
Precipitation 0.00 in - - ()
Sea Level Pressure  
Sea Level Pressure 30.29 in    
Wind  
Wind Speed 13 mph (West)    
Max Wind Speed 22 mph    
Max Gust Speed -    
Visibility 10 miles    
Events      
Averages and records for this station are not official NWS values.
T = Trace of Precipitation, MM = Missing Value Source: NWS Daily Summary

Daily Weather History Graph

Daily Weather History Graph

Search for Another Location

Airport or City:

Trip Planner

Search our weather history database for the weather conditions in past years. The results will help you decide how hot, cold, wet, or windy it might be!

Date:

Astronomy

Dec. 25, 2011 Rise Set
Actual Time 7:17 AM CST 4:34 PM CST
Civil Twilight 6:46 AM CST 5:05 PM CST
Nautical Twilight 6:11 AM CST 5:39 PM CST
Astronomical Twilight 5:38 AM CST 6:12 PM CST
Moon 7:55 AM CST (12/25) 5:54 PM CST (12/25)
Length of Visible Light 10h 18m
Length of Day
9h 17m
New Moon, 1% of the Moon is Illuminated
Dec 25
New Moon
Jan 1
First Quarter
Jan 9
Full
Jan 16
Last Quarter
Jan 23
New

Hourly Weather History & Observations

Time (CST) Temp. Windchill Dew Point Humidity Pressure Visibility Wind Dir Wind Speed Gust Speed Precip Events Conditions
12:56 AM 30.0 °F 20.0 °F 27.1 °F 89% 30.27 in 10.0 mi WSW 12.7 mph - N/A   Clear
1:56 AM 28.0 °F 17.5 °F 26.1 °F 92% 30.27 in 10.0 mi SW 12.7 mph - N/A   Clear
2:56 AM 29.1 °F 18.9 °F 27.1 °F 92% 30.25 in 10.0 mi SW 12.7 mph - N/A   Clear
3:56 AM 31.1 °F 21.9 °F 27.1 °F 85% 30.23 in 10.0 mi SW 11.5 mph - N/A   Clear
4:56 AM 31.1 °F 21.4 °F 27.1 °F 85% 30.23 in 10.0 mi SW 12.7 mph - N/A   Clear
6:56 AM 29.1 °F 19.4 °F 26.1 °F 88% 30.22 in 10.0 mi WSW 11.5 mph - N/A   Clear
7:56 AM 31.1 °F 19.3 °F 26.1 °F 82% 30.22 in 10.0 mi WSW 18.4 mph - N/A   Clear
8:56 AM 34.0 °F 23.0 °F 27.1 °F 76% 30.24 in 10.0 mi West 18.4 mph - N/A   Clear
9:56 AM 36.0 °F 26.3 °F 27.1 °F 70% 30.25 in 10.0 mi West 16.1 mph - N/A   Clear
10:56 AM 37.9 °F 29.6 °F 28.0 °F 68% 30.26 in 10.0 mi West 13.8 mph - N/A   Clear
11:56 AM 41.9 °F 33.1 °F 28.0 °F 58% 30.25 in 10.0 mi WNW 19.6 mph - N/A   Clear
12:56 PM 41.9 °F 32.6 °F 29.1 °F 61% 30.27 in 10.0 mi WNW 21.9 mph - N/A   Clear
1:56 PM 43.0 °F 34.5 °F 28.0 °F 56% 30.27 in 10.0 mi WNW 19.6 mph - N/A   Clear
2:56 PM 43.0 °F 34.8 °F 28.0 °F 56% 30.28 in 10.0 mi WNW 18.4 mph - N/A   Clear
3:56 PM 41.9 °F 34.3 °F 26.1 °F 53% 30.31 in 10.0 mi WNW 15.0 mph - N/A   Clear
4:56 PM 37.9 °F 30.9 °F 26.1 °F 62% 30.33 in 10.0 mi WNW 10.4 mph - N/A   Clear
5:56 PM 36.9 °F 30.1 °F 26.1 °F 65% 30.36 in 10.0 mi West 9.2 mph - N/A   Clear
6:56 PM 34.0 °F 27.2 °F 26.1 °F 73% 30.38 in 10.0 mi West 8.1 mph - N/A   Clear
7:56 PM 32.0 °F 24.8 °F 26.1 °F 79% 30.39 in 10.0 mi West 8.1 mph - N/A   Clear
8:56 PM 32.9 °F 25.9 °F 27.1 °F 79% 30.38 in 10.0 mi West 8.1 mph - N/A   Clear
9:56 PM 32.9 °F 26.7 °F 26.1 °F 76% 30.39 in 10.0 mi West 6.9 mph - N/A   Clear
10:56 PM 31.1 °F 25.4 °F 26.1 °F 82% 30.39 in 10.0 mi West 5.8 mph - N/A   Clear